Regional Weather Roundup
Issued by NWS

Home | Current Version | Previous Version | Graphics & Text | Print | Product List | Glossary On
Versions: 1 2 3 4 5 6 7 8 9 10 11 12 13 14 15 16 17 18 19 20 21 22 23 24 25 26 27 28 29 30 31 32 33 34 35 36 37 38 39 40 41 42 43 44 45 46 47 48 49 50
000
ASUS45 KPSR 291700
RWRAZ

ARIZONA HOURLY REGIONAL WEATHER ROUNDUP
NATIONAL WEATHER SERVICE PHOENIX AZ
1000 AM MST FRI MAY 29 2015

NOTE: FAIR INDICATES FEW OR NO CLOUDS BELOW 12,000 FEET WITH NO
SIGNIFICANT WEATHER AND/OR OBSTRUCTIONS TO VISIBILITY.

AZZ001>003-036-291800-
NORTHWEST ARIZONA

CITY           SKY/WX    TMP DP  RH WIND       PRES   REMARKS
KINGMAN        SUNNY     86  21   9 W5        30.06S
$$

AZZ004>008-015-016-018-291800-
NORTH CENTRAL ARIZONA

CITY           SKY/WX    TMP DP  RH WIND       PRES   REMARKS
GRAND CANYON   MOSUNNY   71  34  25 VRB3      30.28R
WILLIAMS       SUNNY     70  32  24 S7G13     30.34S
PRESCOTT       SUNNY     78  25  14 N5        30.18S
FLAGSTAFF      NOT AVBL
PAYSON         MOSUNNY   79  34  19 CALM      30.18S
PAGE           SUNNY     77  40  26 VRB7      30.15S
$$

AZZ009>014-017-291800-
NORTHEAST ARIZONA

CITY           SKY/WX    TMP DP  RH WIND       PRES   REMARKS
WINSLOW        NOT AVBL
SAINT JOHNS    MOSUNNY   70  26  19 NW5       30.20F
WINDOW ROCK    MOSUNNY   69  31  24 SW6       30.26F
$$

AZZ023-291800-
GREATER PHOENIX AREA

CITY           SKY/WX    TMP DP  RH WIND       PRES   REMARKS
PHOENIX        MOSUNNY   89  34  14 NE5       29.93S
GLENDALE       MOSUNNY   88  37  16 S6        29.95S
LUKE AFB       SUNNY     87  37  17 SE5       29.93S
DEER VALLEY    SUNNY     86  32  14 VRB6      29.95S
SCOTTSDALE     SUNNY     86  33  15 S5        29.97S
MESA-GATEWAY   MOSUNNY   84  37  18 CALM      29.97S
CHANDLER       MOSUNNY   86  37  17 CALM      29.95S
$$

AZZ027-028-291800-
SOUTHWEST MARICOPA COUNTY AND PINAL COUNTY

CITY           SKY/WX    TMP DP  RH WIND       PRES   REMARKS
CASA GRANDE    SUNNY     86  37  17 CALM      29.96R
GILA BEND      SUNNY     90  36  15 VRB6      29.92S
$$

AZZ503-504-507>509-291800-
SOUTHEAST ARIZONA

CITY           SKY/WX    TMP DP  RH WIND       PRES   REMARKS
TUCSON         SUNNY     87  32  14 CALM      30.03F
DAVIS-MONTHAN  SUNNY     85  35  16 VRB1      30.01F
RYAN FIELD       N/A     86  34  15 CALM      30.02F
NOGALES        SUNNY     85  37  18 S7        30.08F
SIERRA VISTA   SUNNY     82  32  16 VRB6      30.15S
SAFFORD        SUNNY     84  26  12 VRB5      30.03F
$$

AZZ020-021-025-026-031-291800-
SOUTHWEST ARIZONA

CITY           SKY/WX    TMP DP  RH WIND       PRES   REMARKS
YUMA           NOT AVBL
$$

CAZ031-033-041-043-047-048-061-291800-
SOUTHERN CALIFORNIA

CITY           SKY/WX    TMP DP  RH WIND       PRES   REMARKS
DOWNTOWN L.A.  CLOUDY    67  56  67 CALM      29.96F HAZE
L.A. AIRPORT   PTSUNNY   62  56  80 S3        29.97F FOG
SAN DIEGO      CLOUDY    65  56  72 NW5       29.98S
BURBANK        SUNNY     64  55  72 S6        29.96S HAZE
ONTARIO        MOSUNNY   67  56  67 SW5       29.96F HAZE
RIVERSIDE      MOSUNNY   63  56  78 W3        29.96F HAZE
PALM SPRINGS   SUNNY     86  49  27 SE10      29.91S
EL CENTRO NAS  MOSUNNY   84  52  33 SE5       29.89S
IMPERIAL       SUNNY     84  56  38 NW3       29.87S
BLYTHE         SUNNY     89  38  16 S5        29.90S
$$

NVZ020-UTZ003-291800-
SOUTHERN NEVADA-UTAH

CITY           SKY/WX    TMP DP  RH WIND       PRES   REMARKS
LAS VEGAS      NOT AVBL
SALT LAKE CITY MOSUNNY   67  41  38 VRB5      30.20S
$$

NMZ009-TXZ055-291800-
NEW MEXICO-WEST TEXAS

CITY           SKY/WX    TMP DP  RH WIND       PRES   REMARKS
ALBUQUERQUE    PTSUNNY   73  36  25 N7        30.18S
EL PASO        MOSUNNY   85  20   9 CALM      30.04F
$$


........................KEY........................
SKY/WX - SKY CONDITION/WEATHER
TMP    - TEMPERATURE IN FAHRENHEIT
DP     - DEW POINT IN FAHRENHEIT
RH     - RELATIVE HUMIDITY IN PERCENT
WIND   - DIRECTION AND SPEED IN MILES PER HOUR (MPH)
VRB    - VARIABLE WIND DIRECTION
PRES   - MEAN SEA LEVEL PRESSURE IN INCHES OF MERCURY
         F - FALLING PRESSURE   R - RISING PRESSURE
         S - STEADY PRESSURE
VSB    - VISIBILITY IN MILES
HX     - HEAT INDEX IN FAHRENHEIT
WCI    - WIND CHILL INDEX IN FAHRENHEIT
TC     - TEMPERATURE IN CELSIUS WHICH IS ALSO KNOWN AS
         TEMPERATURE IN CENTIGRADE
AFB    - AIR FORCE BASE
         LUKE AFB IS LUKE AIR FORCE BASE
         DAVIS-MONTHAN IS DAVIS-MONTHAN AIR FORCE BASE
NAS    - NAVAL AIR STATION
         EL CENTRO NAS IS EL CENTRO NAVAL AIR STATION
N/A    - NOT AVAILABLE



USA.gov is the U.S. government's official web portal to all federal, state and local government web resources and services.